TimePST,TemperatureF,Dew PointF,Humidity,Sea Level PressureIn,VisibilityMPH,Wind Direction,Wind SpeedMPH,Gust SpeedMPH,PrecipitationIn,Events,Conditions,WindDirDegrees,DateUTC
12:53 AM,1.0,-4.0,79,30.38,-9999.0,SSW,4.6,-,N/A,,Unknown,210,2013-02-25 08:53:00
1:53 AM,5.0,-0.9,76,30.34,-9999.0,South,8.1,-,N/A,,Unknown,180,2013-02-25 09:53:00
2:53 AM,7.0,1.0,77,30.31,-9999.0,South,6.9,-,N/A,,Unknown,190,2013-02-25 10:53:00
3:53 AM,3.9,-2.0,76,30.32,-9999.0,South,9.2,-,N/A,,Unknown,190,2013-02-25 11:53:00
4:53 AM,6.1,-0.0,76,30.33,-9999.0,South,5.8,-,N/A,,Unknown,190,2013-02-25 12:53:00
5:53 AM,6.1,1.9,83,30.33,-9999.0,SSW,11.5,-,N/A,,Unknown,200,2013-02-25 13:53:00
6:53 AM,7.0,1.9,80,30.37,-9999.0,SSW,3.5,-,N/A,,Unknown,210,2013-02-25 14:53:00
7:53 AM,14.0,8.1,77,30.34,-9999.0,SW,5.8,-,N/A,,Unknown,220,2013-02-25 15:53:00
8:53 AM,23.0,10.9,60,30.27,-9999.0,ENE,3.5,-,N/A,,Unknown,60,2013-02-25 16:53:00
9:53 AM,28.0,12.0,51,30.22,-9999.0,Calm,Calm,-,N/A,,Unknown,0,2013-02-25 17:53:00
10:53 AM,27.0,12.9,56,30.21,-9999.0,ENE,5.8,-,N/A,,Unknown,70,2013-02-25 18:53:00
11:53 AM,30.9,15.1,52,30.15,-9999.0,South,4.6,-,N/A,,Unknown,180,2013-02-25 19:53:00
12:53 PM,37.0,14.0,39,30.12,-9999.0,NE,3.5,-,N/A,,Unknown,40,2013-02-25 20:53:00
1:53 PM,37.0,18.0,46,30.08,-9999.0,NNE,8.1,-,N/A,,Unknown,30,2013-02-25 21:53:00
2:53 PM,39.0,18.0,43,30.09,-9999.0,WNW,29.9,39.1,N/A,,Unknown,300,2013-02-25 22:53:00
3:53 PM,33.1,25.0,72,30.15,-9999.0,North,25.3,39.1,N/A,,Unknown,350,2013-02-25 23:53:00
4:53 PM,28.9,25.0,85,30.19,-9999.0,North,13.8,-,N/A,,Unknown,10,2013-02-26 00:53:00
5:53 PM,27.0,21.9,81,30.19,-9999.0,East,3.5,-,N/A,,Unknown,100,2013-02-26 01:53:00
6:53 PM,21.0,18.0,88,30.22,-9999.0,SW,5.8,-,N/A,,Unknown,220,2013-02-26 02:53:00
7:53 PM,21.0,17.1,85,30.19,-9999.0,South,8.1,-,N/A,,Unknown,190,2013-02-26 03:53:00
8:53 PM,16.0,12.0,84,30.17,-9999.0,South,6.9,-,N/A,,Unknown,170,2013-02-26 04:53:00
9:53 PM,17.1,12.0,81,30.15,-9999.0,South,8.1,-,N/A,,Unknown,190,2013-02-26 05:53:00
10:53 PM,15.1,10.9,84,30.17,-9999.0,South,10.4,-,N/A,,Unknown,190,2013-02-26 06:53:00
11:53 PM,17.1,10.0,74,30.14,-9999.0,North,5.8,-,N/A,,Unknown,360,2013-02-26 07:53:00